Year,Month,Day,Hour,Minute,Value (Times are PST for temperature in C)
2010,06,27,00,00,15.30
2010,06,27,00,01,15.30
2010,06,27,00,02,15.30
2010,06,27,00,03,15.30
2010,06,27,00,04,15.30
2010,06,27,00,05,15.30
2010,06,27,00,06,15.40
2010,06,27,00,07,15.40
2010,06,27,00,08,15.40
2010,06,27,00,09,15.50
2010,06,27,00,10,15.60
2010,06,27,00,11,15.60
2010,06,27,00,12,15.60
2010,06,27,00,13,15.60
2010,06,27,00,14,15.60
2010,06,27,00,15,15.60
2010,06,27,00,16,15.60
2010,06,27,00,17,15.60
2010,06,27,00,18,15.60
2010,06,27,00,19,15.60
2010,06,27,00,20,15.60
2010,06,27,00,21,15.60
2010,06,27,00,22,15.60
2010,06,27,00,23,15.60
2010,06,27,00,24,15.60
2010,06,27,00,25,15.50
2010,06,27,00,26,15.50
2010,06,27,00,27,15.50
2010,06,27,00,28,15.50
2010,06,27,00,29,15.40
2010,06,27,00,30,15.40
2010,06,27,00,31,15.40
2010,06,27,00,32,15.40
2010,06,27,00,33,15.40
2010,06,27,00,34,15.40
2010,06,27,00,35,15.40
2010,06,27,00,36,15.40
2010,06,27,00,37,15.40
2010,06,27,00,38,15.40
2010,06,27,00,39,15.40
2010,06,27,00,40,15.40
2010,06,27,00,41,15.40
2010,06,27,00,42,15.40
2010,06,27,00,43,15.30
2010,06,27,00,44,15.30
2010,06,27,00,45,15.30
2010,06,27,00,46,15.30
2010,06,27,00,47,15.30
2010,06,27,00,48,15.30
2010,06,27,00,49,15.30
2010,06,27,00,50,15.30
2010,06,27,00,51,15.30
2010,06,27,00,52,15.30
2010,06,27,00,53,15.30
2010,06,27,00,54,15.30
2010,06,27,00,55,15.30
2010,06,27,00,56,15.30
2010,06,27,00,57,15.30
2010,06,27,00,58,15.30
2010,06,27,00,59,15.30
2010,06,27,01,00,15.30
2010,06,27,01,01,15.30
2010,06,27,01,02,15.30
2010,06,27,01,03,15.30
2010,06,27,01,04,15.30
2010,06,27,01,05,15.40
2010,06,27,01,06,15.40
2010,06,27,01,07,15.40
2010,06,27,01,08,15.40
2010,06,27,01,09,15.40
2010,06,27,01,10,15.40
2010,06,27,01,11,15.40
2010,06,27,01,12,15.40
2010,06,27,01,13,15.40
2010,06,27,01,14,15.40
2010,06,27,01,15,15.40
2010,06,27,01,16,15.40
2010,06,27,01,17,15.40
2010,06,27,01,18,15.50
2010,06,27,01,19,15.50
2010,06,27,01,20,15.50
2010,06,27,01,21,15.50
2010,06,27,01,22,15.50
2010,06,27,01,23,15.50
2010,06,27,01,24,15.50
2010,06,27,01,25,15.50
2010,06,27,01,26,15.50
2010,06,27,01,27,15.50
2010,06,27,01,28,15.50
2010,06,27,01,29,15.50
2010,06,27,01,30,15.50
2010,06,27,01,31,15.50
2010,06,27,01,32,15.50
2010,06,27,01,33,15.50
2010,06,27,01,34,15.50
2010,06,27,01,35,15.50
2010,06,27,01,36,15.50
2010,06,27,01,37,15.50
2010,06,27,01,38,15.50
2010,06,27,01,39,15.40
2010,06,27,01,40,15.40
2010,06,27,01,41,15.40
2010,06,27,01,42,15.40
2010,06,27,01,43,15.40
2010,06,27,01,44,15.40
2010,06,27,01,45,15.40
2010,06,27,01,46,15.40
2010,06,27,01,47,15.40
2010,06,27,01,48,15.40
2010,06,27,01,49,15.40
2010,06,27,01,50,15.40
2010,06,27,01,51,15.30
2010,06,27,01,52,15.30
2010,06,27,01,53,15.30
2010,06,27,01,54,15.30
2010,06,27,01,55,15.30
2010,06,27,01,56,15.30
2010,06,27,01,57,15.20
2010,06,27,01,58,15.20
2010,06,27,01,59,15.20
2010,06,27,02,00,15.20
2010,06,27,02,01,15.20
2010,06,27,02,02,15.10
2010,06,27,02,03,15.10
2010,06,27,02,04,15.10
2010,06,27,02,05,15.10
2010,06,27,02,06,15.10
2010,06,27,02,07,15.10
2010,06,27,02,08,15.10
2010,06,27,02,09,15.10
2010,06,27,02,10,15.10
2010,06,27,02,11,15.10
2010,06,27,02,12,15.10
2010,06,27,02,13,15.20
2010,06,27,02,14,15.20
2010,06,27,02,15,15.20
2010,06,27,02,16,15.20
2010,06,27,02,17,15.20
2010,06,27,02,18,15.30
2010,06,27,02,19,15.30
2010,06,27,02,20,15.30
2010,06,27,02,21,15.30
2010,06,27,02,22,15.30
2010,06,27,02,23,15.30
2010,06,27,02,24,15.30
2010,06,27,02,25,15.30
2010,06,27,02,26,15.30
2010,06,27,02,27,15.30
2010,06,27,02,28,15.30
2010,06,27,02,29,15.30
2010,06,27,02,30,15.30
2010,06,27,02,31,15.30
2010,06,27,02,32,15.30
2010,06,27,02,33,15.30
2010,06,27,02,34,15.20
2010,06,27,02,35,15.20
2010,06,27,02,36,15.20
2010,06,27,02,37,15.20
2010,06,27,02,38,15.20
2010,06,27,02,39,15.20
2010,06,27,02,40,15.20
2010,06,27,02,41,15.20
2010,06,27,02,42,15.20
2010,06,27,02,43,15.20
2010,06,27,02,44,15.20
2010,06,27,02,45,15.20
2010,06,27,02,46,15.20
2010,06,27,02,47,15.10
2010,06,27,02,48,15.10
2010,06,27,02,49,15.10
2010,06,27,02,50,15.10
2010,06,27,02,51,15.10
2010,06,27,02,52,15.10
2010,06,27,02,53,15.10
2010,06,27,02,54,15.10
2010,06,27,02,55,15.10
2010,06,27,02,56,15.10
2010,06,27,02,57,15.10
2010,06,27,02,58,15.10
2010,06,27,02,59,15.20
2010,06,27,03,00,15.20
2010,06,27,03,01,15.20
2010,06,27,03,02,15.10
2010,06,27,03,03,15.10
2010,06,27,03,04,15.10
2010,06,27,03,05,15.00
2010,06,27,03,06,15.00
2010,06,27,03,07,15.00
2010,06,27,03,08,15.00
2010,06,27,03,09,15.00
2010,06,27,03,10,15.00
2010,06,27,03,11,15.00
2010,06,27,03,12,15.00
2010,06,27,03,13,15.00
2010,06,27,03,14,15.00
2010,06,27,03,15,15.00
2010,06,27,03,16,15.00
2010,06,27,03,17,15.00
2010,06,27,03,18,15.00
2010,06,27,03,19,15.00
2010,06,27,03,20,15.00
2010,06,27,03,21,15.00
2010,06,27,03,22,15.00
2010,06,27,03,23,15.00
2010,06,27,03,24,15.00
2010,06,27,03,25,14.90
2010,06,27,03,26,14.90
2010,06,27,03,27,14.90
2010,06,27,03,28,14.90
2010,06,27,03,29,14.90
2010,06,27,03,30,14.80
2010,06,27,03,31,14.80
2010,06,27,03,32,14.80
2010,06,27,03,33,14.80
2010,06,27,03,34,14.80
2010,06,27,03,35,14.80
2010,06,27,03,36,14.80
2010,06,27,03,37,14.80
2010,06,27,03,38,14.80
2010,06,27,03,39,14.80
2010,06,27,03,40,14.70
2010,06,27,03,41,14.70
2010,06,27,03,42,14.70
2010,06,27,03,43,14.70
2010,06,27,03,44,14.70
2010,06,27,03,45,14.70
2010,06,27,03,46,14.70
2010,06,27,03,47,14.70
2010,06,27,03,48,14.70
2010,06,27,03,49,14.70
2010,06,27,03,50,14.70
2010,06,27,03,51,14.70
2010,06,27,03,52,14.70
2010,06,27,03,53,14.70
2010,06,27,03,54,14.70
2010,06,27,03,55,14.70
2010,06,27,03,56,14.70
2010,06,27,03,57,14.60
2010,06,27,03,58,14.60
2010,06,27,03,59,14.60
2010,06,27,04,00,14.60
2010,06,27,04,01,14.50
2010,06,27,04,02,14.50
2010,06,27,04,03,14.50
2010,06,27,04,04,14.50
2010,06,27,04,05,14.50
2010,06,27,04,06,14.50
2010,06,27,04,07,14.40
2010,06,27,04,08,14.40
2010,06,27,04,09,14.40
2010,06,27,04,10,14.40
2010,06,27,04,11,14.40
2010,06,27,04,12,14.40
2010,06,27,04,13,14.40
2010,06,27,04,14,14.30
2010,06,27,04,15,14.30
2010,06,27,04,16,14.20
2010,06,27,04,17,14.10
2010,06,27,04,18,14.00
2010,06,27,04,19,14.00
2010,06,27,04,20,13.90
2010,06,27,04,21,13.90
2010,06,27,04,22,13.80
2010,06,27,04,23,13.80
2010,06,27,04,24,13.80
2010,06,27,04,25,13.80
2010,06,27,04,26,13.80
2010,06,27,04,27,13.70
2010,06,27,04,28,13.70
2010,06,27,04,29,13.60
2010,06,27,04,30,13.60
2010,06,27,04,31,13.50
2010,06,27,04,32,13.50
2010,06,27,04,33,13.50
2010,06,27,04,34,13.40
2010,06,27,04,35,13.30
2010,06,27,04,36,13.30
2010,06,27,04,37,13.30
2010,06,27,04,38,13.30
2010,06,27,04,39,13.20
2010,06,27,04,40,13.20
2010,06,27,04,41,13.20
2010,06,27,04,42,13.20
2010,06,27,04,43,13.20
2010,06,27,04,44,13.20
2010,06,27,04,45,13.10
2010,06,27,04,46,13.10
2010,06,27,04,47,13.10
2010,06,27,04,48,13.10
2010,06,27,04,49,13.10
2010,06,27,04,50,13.10
2010,06,27,04,51,13.10
2010,06,27,04,52,13.00
2010,06,27,04,53,13.00
2010,06,27,04,54,13.00
2010,06,27,04,55,13.00
2010,06,27,04,56,13.00
2010,06,27,04,57,13.00
2010,06,27,04,58,13.00
2010,06,27,04,59,13.00
2010,06,27,05,00,13.00
2010,06,27,05,01,13.00
2010,06,27,05,02,13.00
2010,06,27,05,03,12.90
2010,06,27,05,04,12.90
2010,06,27,05,05,12.90
2010,06,27,05,06,12.90
2010,06,27,05,07,12.90
2010,06,27,05,08,12.80
2010,06,27,05,09,12.80
2010,06,27,05,10,12.80
2010,06,27,05,11,12.80
2010,06,27,05,12,12.80
2010,06,27,05,13,12.80
2010,06,27,05,14,12.80
2010,06,27,05,15,12.80
2010,06,27,05,16,12.80
2010,06,27,05,17,12.80
2010,06,27,05,18,12.80
2010,06,27,05,19,12.80
2010,06,27,05,20,12.80
2010,06,27,05,21,12.80
2010,06,27,05,22,12.80
2010,06,27,05,23,12.80
2010,06,27,05,24,12.80
2010,06,27,05,25,12.80
2010,06,27,05,26,12.80
2010,06,27,05,27,12.80
2010,06,27,05,28,12.80
2010,06,27,05,29,12.80
2010,06,27,05,30,12.80
2010,06,27,05,31,12.80
2010,06,27,05,32,12.80
2010,06,27,05,33,12.80
2010,06,27,05,34,12.80
2010,06,27,05,35,12.80
2010,06,27,05,36,12.80
2010,06,27,05,37,12.80
2010,06,27,05,38,12.80
2010,06,27,05,39,12.80
2010,06,27,05,40,12.80
2010,06,27,05,41,12.80
2010,06,27,05,42,12.80
2010,06,27,05,43,12.80
2010,06,27,05,44,12.80
2010,06,27,05,45,12.80
2010,06,27,05,46,12.80
2010,06,27,05,47,12.80
2010,06,27,05,48,12.80
2010,06,27,05,49,12.90
2010,06,27,05,50,12.90
2010,06,27,05,51,12.90
2010,06,27,05,52,12.90
2010,06,27,05,53,12.90
2010,06,27,05,54,12.90
2010,06,27,05,55,12.90
2010,06,27,05,56,12.90
2010,06,27,05,57,12.90
2010,06,27,05,58,12.90
2010,06,27,05,59,12.90
2010,06,27,06,00,12.90
2010,06,27,06,01,12.90
2010,06,27,06,02,12.90
2010,06,27,06,03,12.90
2010,06,27,06,04,12.90
2010,06,27,06,05,12.90
2010,06,27,06,06,12.90
2010,06,27,06,07,12.90
2010,06,27,06,08,12.90
2010,06,27,06,09,12.90
2010,06,27,06,10,12.90
2010,06,27,06,11,12.90
2010,06,27,06,12,12.90
2010,06,27,06,13,12.90
2010,06,27,06,14,12.90
2010,06,27,06,15,12.90
2010,06,27,06,16,12.90
2010,06,27,06,17,12.90
2010,06,27,06,18,12.90
2010,06,27,06,19,12.90
2010,06,27,06,20,12.90
2010,06,27,06,21,12.90
2010,06,27,06,22,12.90
2010,06,27,06,23,12.90
2010,06,27,06,24,12.90
2010,06,27,06,25,12.90
2010,06,27,06,26,12.90
2010,06,27,06,27,12.90
2010,06,27,06,28,13.00
2010,06,27,06,29,13.00
2010,06,27,06,30,13.00
2010,06,27,06,31,13.00
2010,06,27,06,32,13.00
2010,06,27,06,33,13.00
2010,06,27,06,34,13.00
2010,06,27,06,35,13.00
2010,06,27,06,36,13.00
2010,06,27,06,37,13.00
2010,06,27,06,38,13.00
2010,06,27,06,39,13.00
2010,06,27,06,40,13.00
2010,06,27,06,41,13.00
2010,06,27,06,42,13.00
2010,06,27,06,43,13.00
2010,06,27,06,44,13.00
2010,06,27,06,45,13.00
2010,06,27,06,46,13.00
2010,06,27,06,47,13.00
2010,06,27,06,48,13.00
2010,06,27,06,49,13.00
2010,06,27,06,50,13.00
2010,06,27,06,51,13.00
2010,06,27,06,52,13.00
2010,06,27,06,53,13.10
2010,06,27,06,54,13.10
2010,06,27,06,55,13.10
2010,06,27,06,56,13.10
2010,06,27,06,57,13.10
2010,06,27,06,58,13.10
2010,06,27,06,59,13.10
2010,06,27,07,00,13.10
2010,06,27,07,01,13.10
2010,06,27,07,02,13.10
2010,06,27,07,03,13.10
2010,06,27,07,04,13.10
2010,06,27,07,05,13.20
2010,06,27,07,06,13.20
2010,06,27,07,07,13.20
2010,06,27,07,08,13.20
2010,06,27,07,09,13.20
2010,06,27,07,10,13.20
2010,06,27,07,11,13.20
2010,06,27,07,12,13.20
2010,06,27,07,13,13.20
2010,06,27,07,14,13.20
2010,06,27,07,15,13.20
2010,06,27,07,16,13.20
2010,06,27,07,17,13.20
2010,06,27,07,18,13.20
2010,06,27,07,19,13.30
2010,06,27,07,20,13.30
2010,06,27,07,21,13.30
2010,06,27,07,22,13.30
2010,06,27,07,23,13.30
2010,06,27,07,24,13.30
2010,06,27,07,25,13.30
2010,06,27,07,26,13.40
2010,06,27,07,27,13.40
2010,06,27,07,28,13.40
2010,06,27,07,29,13.40
2010,06,27,07,30,13.40
2010,06,27,07,31,13.40
2010,06,27,07,32,13.40
2010,06,27,07,33,13.40
2010,06,27,07,34,13.40
2010,06,27,07,35,13.40
2010,06,27,07,36,13.40
2010,06,27,07,37,13.40
2010,06,27,07,38,13.40
2010,06,27,07,39,13.40
2010,06,27,07,40,13.40
2010,06,27,07,41,13.40
2010,06,27,07,42,13.40
2010,06,27,07,43,13.40
2010,06,27,07,44,13.40
2010,06,27,07,45,13.50
2010,06,27,07,46,13.50
2010,06,27,07,47,13.50
2010,06,27,07,48,13.50
2010,06,27,07,49,13.60
2010,06,27,07,50,13.60
2010,06,27,07,51,13.60
2010,06,27,07,52,13.60
2010,06,27,07,53,13.60
2010,06,27,07,54,13.60
2010,06,27,07,55,13.60
2010,06,27,07,56,13.60
2010,06,27,07,57,13.60
2010,06,27,07,58,13.70
2010,06,27,07,59,13.70
2010,06,27,08,00,13.70
2010,06,27,08,01,13.70
2010,06,27,08,02,13.80
2010,06,27,08,03,13.80
2010,06,27,08,04,13.80
2010,06,27,08,05,13.80
2010,06,27,08,06,13.80
2010,06,27,08,07,13.80
2010,06,27,08,08,13.80
2010,06,27,08,09,13.80
2010,06,27,08,10,13.80
2010,06,27,08,11,13.80
2010,06,27,08,12,13.90
2010,06,27,08,13,13.90
2010,06,27,08,14,13.90
2010,06,27,08,15,13.90
2010,06,27,08,16,13.90
2010,06,27,08,17,13.90
2010,06,27,08,18,13.90
2010,06,27,08,19,14.00
2010,06,27,08,20,14.00
2010,06,27,08,21,14.00
2010,06,27,08,22,14.00
2010,06,27,08,23,14.00
2010,06,27,08,24,14.10
2010,06,27,08,25,14.00
2010,06,27,08,26,14.00
2010,06,27,08,27,14.00
2010,06,27,08,28,14.00
2010,06,27,08,29,14.00
2010,06,27,08,30,14.10
2010,06,27,08,31,14.10
2010,06,27,08,32,14.10
2010,06,27,08,33,14.10
2010,06,27,08,34,14.20
2010,06,27,08,35,14.20
2010,06,27,08,36,14.20
2010,06,27,08,37,14.20
2010,06,27,08,38,14.20
2010,06,27,08,39,14.20
2010,06,27,08,40,14.30
2010,06,27,08,41,14.30
2010,06,27,08,42,14.30
2010,06,27,08,43,14.30
2010,06,27,08,44,14.40
2010,06,27,08,45,14.40
2010,06,27,08,46,14.40
2010,06,27,08,47,14.50
2010,06,27,08,48,14.50
2010,06,27,08,49,14.60
2010,06,27,08,50,14.60
2010,06,27,08,51,14.60
2010,06,27,08,52,14.70
2010,06,27,08,53,14.70
2010,06,27,08,54,14.70
2010,06,27,08,55,14.80
2010,06,27,08,56,14.80
2010,06,27,08,57,14.80
2010,06,27,08,58,14.80
2010,06,27,08,59,14.80
2010,06,27,09,00,14.80
2010,06,27,09,01,14.80
2010,06,27,09,02,14.80
2010,06,27,09,03,14.80
2010,06,27,09,04,14.80
2010,06,27,09,05,14.80
2010,06,27,09,06,14.80
2010,06,27,09,07,14.80
2010,06,27,09,08,14.80
2010,06,27,09,09,14.80
2010,06,27,09,10,14.80
2010,06,27,09,11,14.80
2010,06,27,09,12,14.80
2010,06,27,09,13,14.80
2010,06,27,09,14,14.80
2010,06,27,09,15,14.80
2010,06,27,09,16,14.80
2010,06,27,09,17,14.70
2010,06,27,09,18,14.70
2010,06,27,09,19,14.70
2010,06,27,09,20,14.70
2010,06,27,09,21,14.60
2010,06,27,09,22,14.60
2010,06,27,09,23,14.60
2010,06,27,09,24,14.60
2010,06,27,09,25,14.60
2010,06,27,09,26,14.70
2010,06,27,09,27,14.70
2010,06,27,09,28,14.70
2010,06,27,09,29,14.70
2010,06,27,09,30,14.70
2010,06,27,09,31,14.70
2010,06,27,09,32,14.70
2010,06,27,09,33,14.80
2010,06,27,09,34,14.80
2010,06,27,09,35,14.80
2010,06,27,09,36,14.80
2010,06,27,09,37,14.80
2010,06,27,09,38,14.90
2010,06,27,09,39,15.00
2010,06,27,09,40,15.00
2010,06,27,09,41,15.00
2010,06,27,09,42,15.00
2010,06,27,09,43,15.00
2010,06,27,09,44,15.00
2010,06,27,09,45,15.00
2010,06,27,09,46,15.00
2010,06,27,09,47,15.00
2010,06,27,09,48,15.00
2010,06,27,09,49,15.00
2010,06,27,09,50,14.90
2010,06,27,09,51,14.80
2010,06,27,09,52,14.80
2010,06,27,09,53,14.70
2010,06,27,09,54,14.70
2010,06,27,09,55,14.70
2010,06,27,09,56,14.70
2010,06,27,09,57,14.70
2010,06,27,09,58,14.70
2010,06,27,09,59,14.70
2010,06,27,10,00,14.70
2010,06,27,10,01,14.70
2010,06,27,10,02,14.70
2010,06,27,10,03,14.70
2010,06,27,10,04,14.70
2010,06,27,10,05,14.70
2010,06,27,10,06,14.60
2010,06,27,10,07,14.60
2010,06,27,10,08,14.50
2010,06,27,10,09,14.50
2010,06,27,10,10,14.50
2010,06,27,10,11,14.50
2010,06,27,10,12,14.50
2010,06,27,10,13,14.50
2010,06,27,10,14,14.50
2010,06,27,10,15,14.60
2010,06,27,10,16,14.60
2010,06,27,10,17,14.60
2010,06,27,10,18,14.60
2010,06,27,10,19,14.60
2010,06,27,10,20,14.60
2010,06,27,10,21,14.60
2010,06,27,10,22,14.70
2010,06,27,10,23,14.70
2010,06,27,10,24,14.70
2010,06,27,10,25,14.70
2010,06,27,10,26,14.70
2010,06,27,10,27,14.70
2010,06,27,10,28,14.70
2010,06,27,10,29,14.70
2010,06,27,10,30,14.70
2010,06,27,10,31,14.70
2010,06,27,10,32,14.60
2010,06,27,10,33,14.60
2010,06,27,10,34,14.60
2010,06,27,10,35,14.60
2010,06,27,10,36,14.50
2010,06,27,10,37,14.50
2010,06,27,10,38,14.50
2010,06,27,10,39,14.50
2010,06,27,10,40,14.50
2010,06,27,10,41,14.50
2010,06,27,10,42,14.60
2010,06,27,10,43,14.60
2010,06,27,10,44,14.60
2010,06,27,10,45,14.60
2010,06,27,10,46,14.60
2010,06,27,10,47,14.60
2010,06,27,10,48,14.70
2010,06,27,10,49,14.70
2010,06,27,10,50,14.80
2010,06,27,10,51,14.80
2010,06,27,10,52,14.80
2010,06,27,10,53,14.80
2010,06,27,10,54,14.90
2010,06,27,10,55,14.90
2010,06,27,10,56,15.00
2010,06,27,10,57,15.00
2010,06,27,10,58,15.00
2010,06,27,10,59,15.00
2010,06,27,11,00,15.00
2010,06,27,11,01,15.00
2010,06,27,11,02,15.00
2010,06,27,11,03,15.00
2010,06,27,11,04,15.00
2010,06,27,11,05,15.00
2010,06,27,11,06,15.00
2010,06,27,11,07,15.00
2010,06,27,11,08,15.00
2010,06,27,11,09,15.00
2010,06,27,11,10,15.00
2010,06,27,11,11,15.10
2010,06,27,11,12,15.10
2010,06,27,11,13,15.20
2010,06,27,11,14,15.10
2010,06,27,11,15,15.20
2010,06,27,11,16,15.20
2010,06,27,11,17,15.20
2010,06,27,11,18,15.30
2010,06,27,11,19,15.30
2010,06,27,11,20,15.40
2010,06,27,11,21,15.40
2010,06,27,11,22,15.40
2010,06,27,11,23,15.50
2010,06,27,11,24,15.50
2010,06,27,11,25,15.50
2010,06,27,11,26,15.60
2010,06,27,11,27,15.50
2010,06,27,11,28,15.50
2010,06,27,11,29,15.50
2010,06,27,11,30,15.50
2010,06,27,11,31,15.50
2010,06,27,11,32,15.60
2010,06,27,11,33,15.60
2010,06,27,11,34,15.60
2010,06,27,11,35,15.50
2010,06,27,11,36,15.50
2010,06,27,11,37,15.50
2010,06,27,11,38,15.40
2010,06,27,11,39,15.40
2010,06,27,11,40,15.40
2010,06,27,11,41,15.40
2010,06,27,11,42,15.40
2010,06,27,11,43,15.40
2010,06,27,11,44,15.40
2010,06,27,11,45,15.40
2010,06,27,11,46,15.40
2010,06,27,11,47,15.40
2010,06,27,11,48,15.40
2010,06,27,11,49,15.40
2010,06,27,11,50,15.40
2010,06,27,11,51,15.40
2010,06,27,11,52,15.50
2010,06,27,11,53,15.50
2010,06,27,11,54,15.40
2010,06,27,11,55,15.40
2010,06,27,11,56,15.40
2010,06,27,11,57,15.40
2010,06,27,11,58,15.40
2010,06,27,11,59,15.40
2010,06,27,12,00,15.40
2010,06,27,12,01,15.50
2010,06,27,12,02,15.50
2010,06,27,12,03,15.50
2010,06,27,12,04,15.50
2010,06,27,12,05,15.50
2010,06,27,12,06,15.50
2010,06,27,12,07,15.50
2010,06,27,12,08,15.50
2010,06,27,12,09,15.50
2010,06,27,12,10,15.50
2010,06,27,12,11,15.60
2010,06,27,12,12,15.70
2010,06,27,12,13,15.70
2010,06,27,12,14,15.60
2010,06,27,12,15,15.70
2010,06,27,12,16,15.70
2010,06,27,12,17,15.70
2010,06,27,12,18,15.70
2010,06,27,12,19,15.70
2010,06,27,12,20,15.80
2010,06,27,12,21,15.80
2010,06,27,12,22,15.80
2010,06,27,12,23,15.80
2010,06,27,12,24,15.90
2010,06,27,12,25,15.90
2010,06,27,12,26,15.90
2010,06,27,12,27,15.90
2010,06,27,12,28,15.90
2010,06,27,12,29,15.90
2010,06,27,12,30,16.00
2010,06,27,12,31,16.00
2010,06,27,12,32,16.00
2010,06,27,12,33,16.10
2010,06,27,12,34,16.10
2010,06,27,12,35,16.20
2010,06,27,12,36,16.20
2010,06,27,12,37,16.30
2010,06,27,12,38,16.30
2010,06,27,12,39,16.30
2010,06,27,12,40,16.30
2010,06,27,12,41,16.30
2010,06,27,12,42,16.30
2010,06,27,12,43,16.40
2010,06,27,12,44,16.50
2010,06,27,12,45,16.50
2010,06,27,12,46,16.60
2010,06,27,12,47,16.60
2010,06,27,12,48,16.60
2010,06,27,12,49,16.60
2010,06,27,12,50,16.70
2010,06,27,12,51,16.60
2010,06,27,12,52,16.60
2010,06,27,12,53,16.50
2010,06,27,12,54,16.50
2010,06,27,12,55,16.40
2010,06,27,12,56,16.40
2010,06,27,12,57,16.40
2010,06,27,12,58,16.50
2010,06,27,12,59,16.50
2010,06,27,13,00,16.60
2010,06,27,13,01,16.60
2010,06,27,13,02,16.60
2010,06,27,13,03,16.60
2010,06,27,13,04,16.50
2010,06,27,13,05,16.50
2010,06,27,13,06,16.50
2010,06,27,13,07,16.50
2010,06,27,13,08,16.50
2010,06,27,13,09,16.50
2010,06,27,13,10,16.40
2010,06,27,13,11,16.40
2010,06,27,13,12,16.40
2010,06,27,13,13,16.30
2010,06,27,13,14,16.20
2010,06,27,13,15,16.20
2010,06,27,13,16,16.10
2010,06,27,13,17,16.00
2010,06,27,13,18,15.90
2010,06,27,13,19,15.90
2010,06,27,13,20,15.80
2010,06,27,13,21,15.80
2010,06,27,13,22,15.70
2010,06,27,13,23,15.70
2010,06,27,13,24,15.70
2010,06,27,13,25,15.70
2010,06,27,13,26,15.70
2010,06,27,13,27,15.70
2010,06,27,13,28,15.80
2010,06,27,13,29,15.80
2010,06,27,13,30,15.80
2010,06,27,13,31,15.80
2010,06,27,13,32,15.80
2010,06,27,13,33,15.70
2010,06,27,13,34,15.70
2010,06,27,13,35,15.60
2010,06,27,13,36,15.60
2010,06,27,13,37,15.60
2010,06,27,13,38,15.60
2010,06,27,13,39,15.50
2010,06,27,13,40,15.50
2010,06,27,13,41,15.40
2010,06,27,13,42,15.40
2010,06,27,13,43,15.40
2010,06,27,13,44,15.30
2010,06,27,13,45,15.30
2010,06,27,13,46,15.30
2010,06,27,13,47,15.30
2010,06,27,13,48,15.30
2010,06,27,13,49,15.20
2010,06,27,13,50,15.20
2010,06,27,13,51,15.20
2010,06,27,13,52,15.20
2010,06,27,13,53,15.20
2010,06,27,13,54,15.30
2010,06,27,13,55,15.30
2010,06,27,13,56,15.30
2010,06,27,13,57,15.40
2010,06,27,13,58,15.30
2010,06,27,13,59,15.40
2010,06,27,14,00,15.40
2010,06,27,14,01,15.40
2010,06,27,14,02,15.40
2010,06,27,14,03,15.40
2010,06,27,14,04,15.40
2010,06,27,14,05,15.40
2010,06,27,14,06,15.50
2010,06,27,14,07,15.50
2010,06,27,14,08,15.60
2010,06,27,14,09,15.60
2010,06,27,14,10,15.70
2010,06,27,14,11,15.70
2010,06,27,14,12,15.70
2010,06,27,14,13,15.70
2010,06,27,14,14,15.80
2010,06,27,14,15,15.80
2010,06,27,14,16,15.80
2010,06,27,14,17,15.90
2010,06,27,14,18,15.90
2010,06,27,14,19,16.00
2010,06,27,14,20,16.00
2010,06,27,14,21,16.10
2010,06,27,14,22,16.10
2010,06,27,14,23,16.10
2010,06,27,14,24,16.10
2010,06,27,14,25,16.10
2010,06,27,14,26,16.10
2010,06,27,14,27,16.10
2010,06,27,14,28,16.00
2010,06,27,14,29,16.00
2010,06,27,14,30,16.00
2010,06,27,14,31,16.00
2010,06,27,14,32,15.90
2010,06,27,14,33,15.90
2010,06,27,14,34,16.00
2010,06,27,14,35,16.00
2010,06,27,14,36,16.00
2010,06,27,14,37,15.90
2010,06,27,14,38,15.90
2010,06,27,14,39,15.90
2010,06,27,14,40,15.90
2010,06,27,14,41,16.00
2010,06,27,14,42,16.10
2010,06,27,14,43,16.20
2010,06,27,14,44,16.20
2010,06,27,14,45,16.30
2010,06,27,14,46,16.20
2010,06,27,14,47,16.30
2010,06,27,14,48,16.30
2010,06,27,14,49,16.40
2010,06,27,14,50,16.60
2010,06,27,14,51,16.60
2010,06,27,14,52,16.60
2010,06,27,14,53,16.70
2010,06,27,14,54,16.70
2010,06,27,14,55,16.70
2010,06,27,14,56,16.70
2010,06,27,14,57,16.70
2010,06,27,14,58,16.60
2010,06,27,14,59,16.60
2010,06,27,15,00,16.60
2010,06,27,15,01,16.50
2010,06,27,15,02,16.50
2010,06,27,15,03,16.50
2010,06,27,15,04,16.40
2010,06,27,15,05,16.50
2010,06,27,15,06,16.40
2010,06,27,15,07,16.40
2010,06,27,15,08,16.40
2010,06,27,15,09,16.50
2010,06,27,15,10,16.50
2010,06,27,15,11,16.60
2010,06,27,15,12,16.60
2010,06,27,15,13,16.60
2010,06,27,15,14,16.70
2010,06,27,15,15,16.70
2010,06,27,15,16,16.70
2010,06,27,15,17,16.70
2010,06,27,15,18,16.70
2010,06,27,15,19,16.70
2010,06,27,15,20,16.60
2010,06,27,15,21,16.50
2010,06,27,15,22,16.50
2010,06,27,15,23,16.50
2010,06,27,15,24,16.40
2010,06,27,15,25,16.40
2010,06,27,15,26,16.40
2010,06,27,15,27,16.40
2010,06,27,15,28,16.40
2010,06,27,15,29,16.30
2010,06,27,15,30,16.30
2010,06,27,15,31,16.20
2010,06,27,15,32,16.10
2010,06,27,15,33,15.90
2010,06,27,15,34,15.80
2010,06,27,15,35,15.70
2010,06,27,15,36,15.50
2010,06,27,15,37,15.50
2010,06,27,15,38,15.40
2010,06,27,15,39,15.30
2010,06,27,15,40,15.20
2010,06,27,15,41,15.20
2010,06,27,15,42,15.00
2010,06,27,15,43,15.00
2010,06,27,15,44,15.10
2010,06,27,15,45,15.10
2010,06,27,15,46,15.10
2010,06,27,15,47,15.00
2010,06,27,15,48,15.00
2010,06,27,15,49,15.00
2010,06,27,15,50,15.00
2010,06,27,15,51,15.00
2010,06,27,15,52,15.10
2010,06,27,15,53,15.10
2010,06,27,15,54,15.00
2010,06,27,15,55,15.00
2010,06,27,15,56,15.00
2010,06,27,15,57,15.00
2010,06,27,15,58,15.00
2010,06,27,15,59,15.00
2010,06,27,16,00,15.00
2010,06,27,16,01,15.00
2010,06,27,16,02,15.00
2010,06,27,16,03,15.00
2010,06,27,16,04,15.00
2010,06,27,16,05,15.00
2010,06,27,16,06,15.00
2010,06,27,16,07,15.00
2010,06,27,16,08,15.00
2010,06,27,16,09,15.00
2010,06,27,16,10,15.00
2010,06,27,16,11,15.00
2010,06,27,16,12,15.00
2010,06,27,16,13,15.10
2010,06,27,16,14,15.20
2010,06,27,16,15,15.20
2010,06,27,16,16,15.20
2010,06,27,16,17,15.20
2010,06,27,16,18,15.20
2010,06,27,16,19,15.20
2010,06,27,16,20,15.20
2010,06,27,16,21,15.30
2010,06,27,16,22,15.40
2010,06,27,16,23,15.50
2010,06,27,16,24,15.60
2010,06,27,16,25,15.70
2010,06,27,16,26,15.70
2010,06,27,16,27,15.70
2010,06,27,16,28,15.70
2010,06,27,16,29,15.70
2010,06,27,16,30,15.70
2010,06,27,16,31,15.60
2010,06,27,16,32,15.60
2010,06,27,16,33,15.60
2010,06,27,16,34,15.70
2010,06,27,16,35,15.60
2010,06,27,16,36,15.70
2010,06,27,16,37,15.60
2010,06,27,16,38,15.60
2010,06,27,16,39,15.60
2010,06,27,16,40,15.60
2010,06,27,16,41,15.60
2010,06,27,16,42,15.60
2010,06,27,16,43,15.70
2010,06,27,16,44,15.70
2010,06,27,16,45,15.70
2010,06,27,16,46,15.60
2010,06,27,16,47,15.60
2010,06,27,16,48,15.60
2010,06,27,16,49,15.60
2010,06,27,16,50,15.70
2010,06,27,16,51,15.80
2010,06,27,16,52,15.80
2010,06,27,16,53,15.90
2010,06,27,16,54,15.90
2010,06,27,16,55,16.00
2010,06,27,16,56,16.10
2010,06,27,16,57,16.10
2010,06,27,16,58,16.10
2010,06,27,16,59,16.10
2010,06,27,17,00,16.20
2010,06,27,17,01,16.30
2010,06,27,17,02,16.40
2010,06,27,17,03,16.50
2010,06,27,17,04,16.70
2010,06,27,17,05,16.80
2010,06,27,17,06,17.00
2010,06,27,17,07,17.10
2010,06,27,17,08,17.10
2010,06,27,17,09,17.10
2010,06,27,17,10,17.10
2010,06,27,17,11,17.10
2010,06,27,17,12,17.30
2010,06,27,17,13,17.40
2010,06,27,17,14,17.50
2010,06,27,17,15,17.60
2010,06,27,17,16,17.50
2010,06,27,17,17,17.40
2010,06,27,17,18,17.40
2010,06,27,17,19,17.30